Timestamp[UTC];2m Lufttemperatur [degC] (tas);Stations-Luftdruck [Pa] (ps);relative Luftfeuchtigkeit [%] (hurs);spezifische Luftfeuchtigkeit [kg/kg] (huss);Niederschlagsmenge [mm] (pr);Windgeschwindigkeit in 2m [m/s] (sfcWind);Windrichtung [deg];maximale Windgeschwindigkeit [m/s] (wsgsmax);u-Windkomponente [m/s] (uas);v-Windkomponente [m/s] (vas);Sonneneinstrahlung [W/m2];Blitzrate [n];Blitzentfernung [km];Bodenfeuchte in 5cm Tiefe [vol%];Bodenfeuchte in 15cm Tiefe [vol%];Bodenfeuchte in 30cm Tiefe [vol%];Bodenfeuchte in 60cm Tiefe [vol%];Bodentemperatur in 5cm Tiefe [degC];Bodentemperatur in 15cm Tiefe [degC];Bodentemperatur in 30cm Tiefe [degC];Bodentemperatur in 60cm Tiefe [degC];Matrixpotential in 30cm Tiefe [kPa];Bodenfeuchte aus CRNS [vol%] (mrso);Neutronen Anzahl [N/h]
2023-05-01 00:00:00;9,0;101420;75;0,0053;0,0;0,6;66;1,6;0,53;0,24;0;0;nan;20,1;20,9;22,8;25,6;12,4;12,7;12,1;10,6;-14,0;26,1;1400
2023-05-01 01:00:00;8,2;101360;77;0,0051;0,0;0,7;91;1,5;0,66;-0,01;0;0;nan;20,1;20,8;22,8;25,6;12,1;12,4;12,0;10,6;-14,0;26,0;1402
2023-05-01 02:00:00;8,1;101298;77;0,0051;0,0;0,7;92;1,4;0,7;-0,02;0;0;nan;20,1;20,8;22,8;25,6;11,7;12,2;12,0;10,6;-14,0;26,2;1400
2023-05-01 03:00:00;8,1;101230;80;0,0053;0,0;1,0;96;1,7;0,97;-0,09;0;0;nan;20,1;20,8;22,7;25,6;11,5;12,0;11,9;10,7;-14,0;26,2;1399
2023-05-01 04:00:00;7,9;101190;80;0,0052;0,0;1,3;97;2,1;1,26;-0,16;6;0;nan;20,1;20,8;22,7;25,6;11,4;11,8;11,8;10,7;-14,0;26,1;1400
2023-05-01 05:00:00;8,2;101170;78;0,0053;0,0;1,7;96;2,9;1,68;-0,17;62;0;nan;20,0;20,8;22,7;25,6;11,3;11,7;11,7;10,7;-14,0;25,9;1404
2023-05-01 06:00:00;9,5;101150;77;0,0056;0,0;1,5;92;2,8;1,49;-0,04;152;0;nan;20,0;20,8;22,7;25,6;11,2;11,6;11,6;10,7;-14,0;26,1;1400
2023-05-01 07:00:00;11,1;101140;75;0,0061;0,0;1,3;82;2,3;1,27;0,17;253;0;nan;20,0;20,8;22,7;25,6;11,3;11,5;11,6;10,7;-14,0;26,0;1402
2023-05-01 08:00:00;13,1;101110;73;0,0068;0,0;1,0;94;2,3;1,02;-0,08;374;0;nan;19,9;20,7;22,7;25,6;11,6;11,4;11,5;10,8;-14,1;26,0;1402
2023-05-01 09:00:00;15,9;101080;66;0,0074;0,0;1,3;305;3,1;-0,69;0,48;529;0;nan;19,8;20,7;22,7;25,6;12,0;11,5;11,4;10,8;-14,1;25,7;1407
2023-05-01 10:00:00;17,9;101057;58;0,0074;0,0;1,6;263;4,0;-1,31;-0,15;623;0;nan;19,6;20,7;22,7;25,5;12,7;11,7;11,4;10,8;-14,1;26,0;1402
2023-05-01 11:00:00;19,2;101017;52;0,0072;0,0;1,7;209;3,9;-0,79;-1,45;677;0;nan;19,5;20,6;22,7;25,6;13,6;12,0;11,4;10,8;-14,1;25,7;1406
2023-05-01 12:00:00;19,1;101000;47;0,0064;0,0;1,6;239;3,7;-1,33;-0,81;329;0;nan;19,3;20,6;22,7;25,5;14,4;12,4;11,5;10,8;-14,1;25,5;1409
2023-05-01 13:00:00;18,7;100972;50;0,0067;0,0;1,6;345;3,3;-0,41;1,55;281;0;nan;19,2;20,6;22,7;25,5;14,9;12,9;11,6;10,8;-14,2;25,5;1409
2023-05-01 14:00:00;18,2;100957;52;0,0067;0,0;1,7;324;4,3;-0,98;1,35;111;0;nan;19,1;20,5;22,7;25,6;15,1;13,3;11,7;10,8;-14,2;25,4;1411
2023-05-01 15:00:00;17,8;100967;49;0,0061;0,0;2,5;310;7,4;-1,9;1,57;200;5;18;19,1;20,5;22,6;25,6;15,1;13,5;11,9;10,8;-14,2;25,2;1414
2023-05-01 16:00:00;15,8;101072;60;0,0067;0,0;2,6;299;6,3;-2,09;1,18;146;2;20;19,0;20,5;22,6;25,6;15,0;13,7;12,1;10,8;-14,2;25,0;1417
2023-05-01 17:00:00;15,6;101137;64;0,0069;0,0;1,0;247;2,2;-0,6;-0,26;60;0;nan;19,0;20,4;22,6;25,6;14,9;13,7;12,2;10,8;-14,2;24,7;1422
2023-05-01 18:00:00;14,9;101177;68;0,0071;0,0;1,4;302;3,1;-1,17;0,72;18;0;nan;19,0;20,4;22,6;25,5;14,7;13,8;12,3;10,8;-14,2;24,4;1426
2023-05-01 19:00:00;14,0;101235;74;0,0072;0,0;0,8;281;1,8;-0,75;0,14;0;0;nan;18,9;20,4;22,6;25,5;14,5;13,8;12,4;10,8;-14,1;24,7;1423
2023-05-01 20:00:00;12,8;101300;78;0,0071;0,0;0,8;268;1,3;-0,84;-0,04;0;0;nan;18,9;20,4;22,6;25,5;14,2;13,7;12,5;10,8;-14,2;24,6;1424
2023-05-01 21:00:00;12,2;101350;80;0,007;0,0;1,3;294;2,9;-1,17;0,52;0;0;nan;18,9;20,3;22,6;25,5;13,9;13,6;12,5;10,9;-14,2;24,4;1426
2023-05-01 22:00:00;11,8;101400;82;0,007;0,0;1,3;296;2,9;-1,2;0,6;0;0;nan;18,9;20,3;22,6;25,5;13,6;13,4;12,5;10,9;-14,1;24,2;1430
2023-05-01 23:00:00;10,9;101458;86;0,0069;0,0;0,9;286;2,3;-0,86;0,24;0;0;nan;18,9;20,3;22,6;25,5;13,4;13,3;12,5;11,0;-14,2;24,4;1426
2023-05-02 00:00:00;9,4;101510;89;0,0065;0,0;0,7;280;1,6;-0,67;0,12;0;0;nan;18,9;20,3;22,6;25,5;13,1;13,2;12,5;11,0;-14,2;24,4;1427
2023-05-02 01:00:00;9,2;101543;91;0,0065;0,0;1,0;285;2,8;-0,91;0,24;0;0;nan;18,9;20,3;22,6;25,5;12,8;13,0;12,5;11,0;-14,2;24,2;1430
2023-05-02 02:00:00;9,9;101588;92;0,0069;0,0;1,5;286;4,0;-1,43;0,41;0;0;nan;18,9;20,3;22,6;25,5;12,5;12,8;12,4;11,0;-14,2;23,8;1436
2023-05-02 03:00:00;10,1;101620;92;0,0069;0,0;0,9;280;3,1;-0,84;0,15;0;0;nan;18,9;20,2;22,5;25,5;12,4;12,6;12,4;11,1;-14,2;23,5;1441
2023-05-02 04:00:00;9,6;101680;94;0,0069;0,15;1,8;303;4,1;-1,49;0,98;2;0;nan;18,9;20,2;22,5;25,5;12,3;12,5;12,3;11,1;-14,2;23,4;1443
2023-05-02 05:00:00;9,3;101763;95;0,0068;0,0;2,1;306;4,3;-1,69;1,24;21;0;nan;18,9;20,2;22,5;25,5;12,2;12,4;12,3;11,1;-14,2;23,3;1445
2023-05-02 06:00:00;9,3;101830;95;0,0068;0,0;2,5;308;5,8;-1,95;1,54;64;0;nan;18,9;20,2;22,5;25,5;12,1;12,3;12,2;11,1;-14,3;23,3;1444
2023-05-02 07:00:00;8,1;101990;95;0,0063;0,0;2,6;344;5,2;-0,69;2,47;58;0;nan;18,9;20,2;22,5;25,5;12,1;12,2;12,1;11,1;-14,3;23,5;1441
2023-05-02 08:00:00;7,4;102060;94;0,006;0,0;3,4;345;7,3;-0,88;3,29;123;0;nan;18,9;20,2;22,5;25,5;12,0;12,1;12,1;11,1;-14,3;23,5;1441
2023-05-02 09:00:00;8,5;102135;87;0,0059;0,0;3,1;334;6,1;-1,37;2,8;279;0;nan;18,8;20,2;22,5;25,5;12,0;12,1;12,0;11,2;-14,3;23,6;1439
2023-05-02 10:00:00;9,5;102163;77;0,0055;0,0;3,3;328;6,8;-1,72;2,76;351;0;nan;18,8;20,1;22,5;25,5;12,2;12,1;11,9;11,2;-14,3;23,4;1443
2023-05-02 11:00:00;10,2;102173;68;0,0052;0,0;3,2;330;6,3;-1,58;2,73;475;0;nan;18,7;20,1;22,5;25,5;12,4;12,1;11,9;11,2;-14,3;23,3;1444
2023-05-02 12:00:00;10,8;102210;62;0,0049;0,0;2,5;337;6,1;-0,96;2,27;480;0;nan;18,6;20,1;22,5;25,5;12,8;12,2;11,9;11,1;-14,4;23,2;1447
2023-05-02 13:00:00;11,8;102225;59;0,005;0,0;2,5;352;6,0;-0,36;2,45;496;0;nan;18,5;20,0;22,5;25,5;13,2;12,3;11,9;11,1;-14,4;23,2;1446
2023-05-02 14:00:00;11,9;102233;57;0,0048;0,0;3,5;341;6,8;-1,15;3,29;491;0;nan;18,3;20,0;22,4;25,5;13,6;12,5;11,9;11,1;-14,4;23,3;1445
2023-05-02 15:00:00;12,0;102255;57;0,0049;0,0;2,4;350;5,8;-0,4;2,38;483;0;nan;18,2;20,0;22,4;25,5;13,8;12,7;12,0;11,1;-14,4;23,4;1443
2023-05-02 16:00:00;11,9;102290;55;0,0047;0,0;2,4;346;6,3;-0,58;2,34;264;0;nan;18,1;19,9;22,4;25,5;13,9;12,9;12,0;11,1;-14,5;23,5;1441
2023-05-02 17:00:00;11,6;102303;55;0,0046;0,0;2,0;1;4,6;0,02;1,92;162;0;nan;18,1;19,9;22,4;25,5;13,7;13,0;12,1;11,1;-14,5;23,5;1441
2023-05-02 18:00:00;10,6;102340;57;0,0044;0,0;1,8;345;3,2;-0,47;1,78;41;0;nan;18,1;19,9;22,4;25,5;13,5;13,0;12,1;11,1;-14,4;23,4;1443
2023-05-02 19:00:00;8,2;102400;66;0,0044;0,0;0,6;334;1,1;-0,23;0,48;1;0;nan;18,0;19,9;22,4;25,5;13,1;13,0;12,2;11,1;-14,4;23,3;1444
2023-05-02 20:00:00;6,3;102450;73;0,0042;0,0;0,4;286;0,8;-0,35;0,1;0;0;nan;18,0;19,8;22,4;25,5;12,6;12,8;12,2;11,1;-14,4;23,6;1440
2023-05-02 21:00:00;4,8;102490;81;0,0042;0,0;0,4;299;0,7;-0,31;0,17;0;0;nan;18,0;19,8;22,4;25,5;12,1;12,6;12,2;11,1;-14,4;23,9;1435
2023-05-02 22:00:00;3,6;102507;86;0,0041;0,0;0,2;272;0,5;-0,23;0,01;0;0;nan;18,0;19,8;22,4;25,5;11,6;12,4;12,2;11,1;-14,5;24,2;1429
2023-05-02 23:00:00;3,0;102522;89;0,0041;0,0;0,5;332;0,9;-0,12;0,22;0;0;nan;18,0;19,8;22,4;25,5;11,2;12,1;12,1;11,2;-14,4;23,9;1435
2023-05-03 00:00:00;2,0;102530;91;0,0039;0,0;0,5;303;0,8;-0,41;0,26;0;0;nan;18,0;19,8;22,4;25,5;10,8;11,8;12,0;11,2;-14,5;23,9;1434
2023-05-03 01:00:00;1,6;102545;92;0,0038;0,0;0,3;279;0,8;-0,28;0,04;0;0;nan;18,0;19,8;22,4;25,5;10,4;11,5;12,0;11,2;-14,5;24,1;1432
2023-05-03 02:00:00;1,1;102570;92;0,0037;0,0;0,4;287;0,6;-0,33;0,1;0;0;nan;18,0;19,8;22,4;25,5;10,0;11,2;11,8;11,2;-14,5;24,1;1432
2023-05-03 03:00:00;0,9;102555;92;0,0036;0,0;0,4;288;0,6;-0,36;0,11;0;0;nan;18,0;19,8;22,4;25,5;9,6;11,0;11,7;11,2;-14,5;24,3;1429
2023-05-03 04:00:00;1,3;102537;92;0,0038;0,0;0,4;165;0,9;0,09;-0,32;17;0;nan;18,0;19,7;22,3;25,5;9,3;10,7;11,6;11,2;-14,5;24,2;1430
2023-05-03 05:00:00;4,0;102565;96;0,0048;0,0;0,9;69;2,2;0,79;0,3;121;0;nan;18,0;19,7;22,3;25,5;9,0;10,4;11,4;11,2;-14,6;24,2;1429
2023-05-03 06:00:00;6,5;102570;92;0,0054;0,0;2,1;77;4,2;1,96;0,47;262;0;nan;18,0;19,7;22,3;25,5;8,9;10,2;11,3;11,2;-14,6;24,4;1427
2023-05-03 07:00:00;8,0;102556;79;0,0051;0,0;2,5;74;5,8;2,35;0,69;394;0;nan;18,0;19,7;22,3;25,5;9,1;10,1;11,1;11,2;-14,6;24,3;1428
2023-05-03 08:00:00;9,2;102508;71;0,005;0,0;2,6;71;5,8;2,44;0,84;542;0;nan;17,9;19,7;22,3;25,5;9,4;10,0;11,0;11,1;-14,6;24,3;1428
2023-05-03 09:00:00;10,2;102472;66;0,005;0,0;2,6;65;5,9;2,3;1,08;643;0;nan;17,8;19,6;22,2;25,5;10,1;10,1;10,9;11,1;-14,7;24,1;1432
2023-05-03 10:00:00;11,3;102440;62;0,0051;0,0;2,5;56;5,7;2,06;1,41;714;0;nan;17,6;19,6;22,3;25,5;10,9;10,3;10,8;11,1;-14,7;23,9;1434
2023-05-03 11:00:00;12,4;102405;58;0,0051;0,0;2,4;60;5,2;2,1;1,23;749;0;nan;17,4;19,6;22,2;25,5;11,9;10,7;10,8;11,1;-14,7;24,1;1431
2023-05-03 12:00:00;13,3;102383;55;0,0052;0,0;2,7;76;5,8;2,54;0,62;728;0;nan;17,2;19,5;22,2;25,5;13,0;11,2;10,9;11,0;-14,8;24,1;1432
2023-05-03 13:00:00;14,2;102298;55;0,0054;0,0;3,0;82;6,9;3,01;0,42;683;0;nan;17,0;19,5;22,2;25,5;13,9;11,7;11,0;11,0;-14,9;24,0;1433
2023-05-03 14:00:00;14,8;102227;52;0,0054;0,0;3,0;89;6,7;2,97;0,07;583;0;nan;16,9;19,4;22,2;25,5;14,5;12,3;11,1;11,0;-14,8;23,8;1436
2023-05-03 15:00:00;15,1;102180;50;0,0052;0,0;3,0;89;6,3;3,01;0,03;442;0;nan;16,7;19,4;22,2;25,5;14,8;12,7;11,3;10,9;-14,9;23,8;1436
2023-05-03 16:00:00;15,2;102148;46;0,0049;0,0;2,7;73;5,3;2,58;0,8;305;0;nan;16,6;19,3;22,2;25,5;14,8;13,1;11,5;10,9;-14,9;23,6;1440
2023-05-03 17:00:00;14,9;102112;48;0,005;0,0;2,3;59;4,5;1,92;1,17;170;0;nan;16,5;19,3;22,2;25,5;14,6;13,3;11,7;10,9;-14,9;23,7;1438
2023-05-03 18:00:00;13,8;102083;51;0,0049;0,0;1,5;63;3,1;1,33;0,69;42;0;nan;16,5;19,3;22,2;25,5;14,3;13,4;11,9;10,9;-14,8;23,8;1437
2023-05-03 19:00:00;11,9;102080;57;0,0048;0,0;0,8;47;2,0;0,59;0,55;0;0;nan;16,5;19,3;22,1;25,5;13,9;13,3;12,0;10,9;-14,9;23,5;1441
2023-05-03 20:00:00;10,5;102117;62;0,0048;0,0;0,7;12;1,7;0,1;0,49;0;0;nan;16,5;19,2;22,1;25,5;13,5;13,2;12,1;11,0;-14,9;23,5;1441
2023-05-03 21:00:00;10,5;102103;61;0,0047;0,0;1,4;69;3,1;1,3;0,51;0;0;nan;16,5;19,2;22,1;25,5;13,1;13,1;12,2;11,0;-14,9;23,4;1443
2023-05-03 22:00:00;9,6;102068;65;0,0047;0,0;1,4;68;3,1;1,33;0,53;0;0;nan;16,5;19,2;22,1;25,5;12,7;12,9;12,2;11,0;-14,8;23,2;1447
2023-05-03 23:00:00;8,5;102028;70;0,0047;0,0;1,2;83;2,6;1,16;0,14;0;0;nan;16,5;19,2;22,1;25,5;12,3;12,7;12,2;11,0;-14,8;23,2;1445
2023-05-04 00:00:00;8,1;101983;71;0,0047;0,0;1,7;79;3,3;1,62;0,33;0;0;nan;16,5;19,2;22,1;25,5;12,0;12,5;12,2;11,1;-14,9;23,3;1445
2023-05-04 01:00:00;7,5;101934;75;0,0047;0,0;1,7;84;3,8;1,7;0,17;0;0;nan;16,5;19,2;22,1;25,5;11,7;12,3;12,1;11,1;-14,9;23,2;1446
2023-05-04 02:00:00;6,9;101925;77;0,0047;0,0;1,6;83;3,6;1,57;0,2;0;0;nan;16,5;19,1;22,1;25,5;11,4;12,1;12,1;11,1;-14,9;23,3;1445
2023-05-04 03:00:00;6,4;101897;80;0,0047;0,0;1,1;77;2,7;1,07;0,25;0;0;nan;16,5;19,1;22,1;25,5;11,2;11,9;12,0;11,1;-14,9;23,5;1442
2023-05-04 04:00:00;6,1;101877;82;0,0047;0,0;1,2;80;2,8;1,16;0,21;12;0;nan;16,5;19,1;22,1;25,5;11,0;11,7;11,9;11,1;-14,9;23,5;1442
2023-05-04 05:00:00;6,7;101862;84;0,005;0,0;1,6;76;2,9;1,52;0,38;103;0;nan;16,5;19,1;22,1;25,5;10,7;11,5;11,8;11,2;-14,9;23,5;1441
2023-05-04 06:00:00;8,5;101797;81;0,0055;0,0;2,0;69;4,0;1,85;0,72;205;0;nan;16,5;19,1;22,0;25,5;10,7;11,3;11,7;11,2;-14,9;23,1;1448
2023-05-04 07:00:00;10,3;101765;76;0,0058;0,0;1,8;66;3,6;1,66;0,75;342;0;nan;16,4;19,1;22,0;25,5;10,8;11,2;11,6;11,2;-15,0;23,0;1449
2023-05-04 08:00:00;13,5;101727;68;0,0065;0,0;2,0;48;3,8;1,48;1,31;489;0;nan;16,3;19,0;22,0;25,5;11,1;11,2;11,5;11,2;-15,0;23,0;1450
2023-05-04 09:00:00;16,3;101690;61;0,007;0,0;2,3;65;4,6;2,1;0,98;575;0;nan;16,1;19,0;22,0;25,5;11,7;11,3;11,5;11,2;-15,1;23,0;1449
2023-05-04 10:00:00;18,0;101602;57;0,0072;0,0;2,1;62;5,2;1,88;0,99;650;0;nan;15,9;19,0;22,0;25,5;12,6;11,5;11,4;11,2;-15,2;23,3;1444
2023-05-04 11:00:00;19,5;101533;51;0,0071;0,0;2,6;94;5,0;2,48;-0,19;701;0;nan;15,7;18,9;22,0;25,5;13,5;11,9;11,5;11,1;-15,2;23,3;1445
2023-05-04 12:00:00;21,0;101442;46;0,0071;0,0;3,0;98;6,7;2,86;-0,4;687;0;nan;15,5;18,8;22,0;25,5;14,5;12,3;11,5;11,1;-15,3;23,4;1443
2023-05-04 13:00:00;21,8;101352;44;0,0071;0,0;3,2;92;6,3;3,17;-0,09;626;0;nan;15,2;18,8;22,0;25,5;15,3;12,9;11,6;11,1;-15,3;23,3;1445
2023-05-04 14:00:00;22,3;101283;43;0,0071;0,0;2,9;99;6,2;2,81;-0,45;539;0;nan;15,0;18,7;21,9;25,5;15,9;13,4;11,8;11,1;-15,4;23,3;1445
2023-05-04 15:00:00;22,2;101208;44;0,0072;0,0;3,1;72;6,0;2,91;0,94;389;0;nan;14,8;18,7;21,9;25,5;16,2;13,8;12,0;11,1;-15,4;23,4;1443
2023-05-04 16:00:00;21,4;101167;46;0,0072;0,0;2,5;64;5,3;2,22;1,07;227;0;nan;14,6;18,6;21,9;25,5;16,3;14,2;12,2;11,1;-15,5;23,6;1439
2023-05-04 17:00:00;20,8;101140;48;0,0073;0,0;2,4;78;5,0;2,36;0,51;127;0;nan;14,5;18,6;21,9;25,5;16,3;14,4;12,4;11,1;-15,4;23,6;1440
2023-05-04 18:00:00;19,6;101133;50;0,0071;0,0;1,6;90;3,2;1,63;-0,01;55;0;nan;14,5;18,5;21,9;25,5;16,1;14,6;12,6;11,1;-15,4;23,5;1441
2023-05-04 19:00:00;18,0;101165;54;0,0068;0,0;0,9;96;1,8;0,84;-0,08;3;0;nan;14,5;18,5;21,9;25,5;15,8;14,6;12,8;11,1;-15,4;23,9;1435
2023-05-04 20:00:00;16,0;101158;62;0,0069;0,0;0,5;27;1,3;0,19;0,38;0;0;nan;14,5;18,5;21,9;25,5;15,4;14,6;12,9;11,2;-15,4;23,9;1435
2023-05-04 21:00:00;14,1;101115;70;0,007;0,0;0,4;330;1,0;-0,14;0,24;0;0;nan;14,5;18,5;21,9;25,5;15,0;14,4;13,0;11,2;-15,4;23,7;1438
2023-05-04 22:00:00;13,5;101097;72;0,0069;0,0;0,5;111;1,1;0,37;-0,14;0;0;nan;14,5;18,5;21,8;25,5;14,6;14,3;13,0;11,2;-15,4;23,8;1436
2023-05-04 23:00:00;13,0;101092;77;0,0071;0,0;0,4;221;0,8;-0,15;-0,17;0;0;nan;14,5;18,5;21,8;25,5;14,2;14,1;13,0;11,3;-15,4;23,5;1440
2023-05-05 00:00:00;12,8;101070;78;0,0071;0,0;0,7;101;1,6;0,54;-0,11;0;0;nan;14,5;18,4;21,8;25,5;14,0;14,0;13,1;11,4;-15,4;23,4;1442
2023-05-05 01:00:00;12,3;101057;82;0,0072;0,0;0,4;249;0,8;-0,25;-0,09;0;0;nan;14,6;18,4;21,8;25,5;13,8;13,8;13,0;11,4;-15,4;23,4;1443
2023-05-05 02:00:00;12,3;101072;84;0,0074;0,0;0,5;271;1,0;-0,37;0,01;0;0;nan;14,6;18,4;21,8;25,5;13,6;13,6;13,0;11,4;-15,4;23,6;1439
2023-05-05 03:00:00;13,9;101100;79;0,0077;0,0;0,6;191;1,4;-0,11;-0,55;0;0;nan;14,6;18,4;21,8;25,5;13,5;13,5;13,0;11,5;-15,4;23,4;1443
2023-05-05 04:00:00;13,0;101120;84;0,0078;0,0;0,7;207;1,1;-0,28;-0,54;12;0;nan;14,6;18,4;21,8;25,5;13,4;13,4;12,9;11,5;-15,4;23,2;1445
2023-05-05 05:00:00;13,9;101167;86;0,0084;0,0;0,7;206;1,6;-0,27;-0,54;95;0;nan;14,6;18,4;21,8;25,5;13,2;13,3;12,9;11,5;-15,5;23,4;1442
2023-05-05 06:00:00;15,9;101206;83;0,0092;0,0;1,2;256;3,5;-1,11;-0,28;218;0;nan;14,6;18,3;21,8;25,5;13,1;13,2;12,8;11,6;-15,5;23,6;1439
2023-05-05 07:00:00;17,0;101227;79;0,0094;0,0;1,3;226;4,4;-0,94;-0,91;336;0;nan;14,5;18,3;21,8;25,5;13,3;13,1;12,8;11,6;-15,5;23,6;1439
2023-05-05 08:00:00;18,0;101270;76;0,0096;0,0;1,5;282;4,1;-1,33;0,27;437;0;nan;14,4;18,3;21,7;25,4;13,7;13,1;12,7;11,6;-15,6;23,6;1440
2023-05-05 09:00:00;18,8;101270;69;0,0093;0,0;2,1;311;4,7;-1,58;1,37;506;0;nan;14,4;18,3;21,7;25,4;14,3;13,2;12,7;11,6;-15,6;23,6;1439
2023-05-05 10:00:00;20,2;101262;64;0,0094;0,0;1,9;271;4,4;-1,65;0,03;666;0;nan;14,2;18,2;21,7;25,4;15,1;13,5;12,7;11,6;-15,6;23,5;1441
2023-05-05 11:00:00;20,5;101187;60;0,0089;0,0;1,9;264;5,5;-1,47;-0,16;450;0;nan;14,1;18,2;21,7;25,4;16,0;13,9;12,8;11,6;-15,8;23,5;1442
2023-05-05 12:00:00;20,1;101173;60;0,0087;0,0;1,4;212;3,3;-0,74;-1,2;178;1;27;14,0;18,2;21,7;25,4;16,6;14,3;12,8;11,6;-15,8;23,5;1442
2023-05-05 13:00:00;16,7;101197;85;0,0099;0,05;2,2;254;5,4;-1,04;-0,3;162;6;10;14,0;18,1;21,7;25,4;16,7;14,7;13,0;11,6;-15,8;23,6;1440
2023-05-05 14:00:00;14,7;101233;89;0,0092;0,42;3,9;322;7,4;-2,4;3,07;103;1;24;13,9;18,1;21,7;25,4;16,7;15,0;13,1;11,6;-15,8;23,7;1437
2023-05-05 15:00:00;13,2;101283;92;0,0086;0,36;3,2;322;5,8;-1,95;2,51;118;0;nan;14,0;18,1;21,7;25,4;16,5;15,1;13,3;11,7;-15,7;23,6;1440
2023-05-05 16:00:00;13,1;101260;93;0,0086;0,0;1,5;340;3,1;-0,34;0,96;122;0;nan;14,0;18,1;21,7;25,4;16,3;15,2;13,4;11,7;-15,7;23,4;1442
2023-05-05 17:00:00;13,7;101240;90;0,0087;0,0;0,8;124;1,9;0,45;-0,31;115;0;nan;14,0;18,1;21,7;25,4;16,1;15,1;13,5;11,7;-15,7;23,3;1444
2023-05-05 18:00:00;13,5;101270;89;0,0085;0,0;0,6;183;1,2;-0,03;-0,6;30;0;nan;14,0;18,1;21,6;25,4;15,9;15,1;13,6;11,7;-15,8;23,3;1445
2023-05-05 19:00:00;12,3;101313;92;0,0081;0,0;0,5;299;0,9;-0,42;0,23;2;0;nan;14,0;18,0;21,6;25,4;15,6;15,0;13,7;11,8;-15,8;23,0;1449
2023-05-05 20:00:00;10,7;101340;94;0,0075;0,0;0,5;289;0,9;-0,43;0,15;0;0;nan;14,0;18,0;21,6;25,4;15,2;14,9;13,7;11,8;-15,8;22,9;1452
2023-05-05 21:00:00;9,5;101340;95;0,0069;0,0;0,5;290;0,9;-0,34;0,12;0;0;nan;14,0;18,0;21,6;25,4;14,8;14,7;13,7;11,8;-15,7;23,1;1448
2023-05-05 22:00:00;8,9;101337;95;0,0067;0,0;0,4;293;0,7;-0,34;0,14;0;0;nan;14,0;18,0;21,6;25,4;14,3;14,5;13,7;11,9;-15,8;23,1;1448
2023-05-05 23:00:00;8,6;101337;96;0,0066;0,02;0,4;287;0,7;-0,35;0,11;0;0;nan;14,0;18,0;21,6;25,4;13,9;14,3;13,7;11,9;-15,8;23,2;1446
2023-05-06 00:00:00;8,0;101315;96;0,0064;0,02;0,5;278;0,8;-0,36;0,05;0;0;nan;14,0;18,0;21,6;25,4;13,6;14,0;13,6;11,9;-15,8;23,4;1442
2023-05-06 01:00:00;7,6;101303;96;0,0062;0,04;0,3;289;0,7;-0,27;0,09;0;0;nan;14,0;18,0;21,6;25,4;13,3;13,8;13,5;12,0;-15,8;23,4;1443
2023-05-06 02:00:00;7,3;101307;96;0,0061;0,02;0,4;288;0,7;-0,33;0,11;0;0;nan;14,0;18,0;21,6;25,4;12,9;13,6;13,4;12,0;-15,8;23,3;1445
2023-05-06 03:00:00;7,3;101300;97;0,0061;0,06;0,5;0;1,0;-0,0;0,16;0;0;nan;14,0;18,0;21,6;25,4;12,7;13,3;13,3;12,0;-15,8;23,2;1447
2023-05-06 04:00:00;7,9;101297;98;0,0065;0,04;1,3;88;2,4;1,24;0,05;19;0;nan;14,0;17,9;21,5;25,4;12,5;13,1;13,2;12,0;-15,9;23,2;1447
2023-05-06 05:00:00;8,2;101333;100;0,0067;0,0;1,0;71;2,2;0,89;0,31;89;0;nan;14,0;17,9;21,5;25,4;12,4;13,0;13,1;12,0;-15,9;23,0;1450
2023-05-06 06:00:00;9,6;101368;100;0,0074;0,0;1,1;98;2,1;1,08;-0,16;218;0;nan;14,0;17,9;21,5;25,4;12,4;12,8;13,0;12,0;-15,9;23,1;1448
2023-05-06 07:00:00;12,7;101350;99;0,009;0,0;0,9;171;2,3;0,11;-0,76;397;0;nan;14,1;17,9;21,5;25,4;12,6;12,8;12,9;12,0;-15,9;23,0;1450
2023-05-06 08:00:00;15,8;101360;89;0,0098;0,0;1,0;176;2,9;0,07;-0,97;416;0;nan;14,0;17,9;21,5;25,4;13,1;12,8;12,9;12,0;-16,0;23,0;1449
2023-05-06 09:00:00;17,3;101347;79;0,0096;0,0;1,7;157;4,0;0,65;-1,52;513;0;nan;14,0;17,9;21,5;25,4;13,7;12,9;12,8;12,0;-16,0;23,0;1450
2023-05-06 10:00:00;18,6;101322;70;0,0092;0,0;1,5;152;4,5;0,67;-1,24;522;0;nan;13,9;17,9;21,5;25,4;14,4;13,1;12,8;12,0;-16,1;22,9;1452
2023-05-06 11:00:00;19,5;101273;63;0,0088;0,0;1,8;192;3,9;-0,07;-0,32;661;0;nan;13,8;17,8;21,5;25,4;15,1;13,5;12,8;12,0;-16,2;22,7;1456
2023-05-06 12:00:00;20,3;101267;58;0,0085;0,0;1,9;174;4,3;0,18;-1,77;643;0;nan;13,7;17,8;21,5;25,4;16,0;13,9;12,8;12,0;-16,3;22,6;1456
2023-05-06 13:00:00;20,7;101235;55;0,0083;0,0;2,0;143;4,4;0,61;-0,83;536;0;nan;13,6;17,8;21,5;25,4;16,8;14,4;13,0;12,0;-16,3;22,4;1460
2023-05-06 14:00:00;20,5;101203;57;0,0084;0,0;1,5;49;3,4;1,14;1,01;305;0;nan;13,5;17,7;21,4;25,4;17,3;14,8;13,1;12,0;-16,4;22,4;1459
2023-05-06 15:00:00;20,5;101180;56;0,0084;0,0;1,6;61;3,1;1,36;0,74;224;0;nan;13,4;17,7;21,4;25,4;17,5;15,3;13,3;12,0;-16,4;22,4;1460
2023-05-06 16:00:00;19,5;101197;62;0,0086;0,0;1,7;100;4,5;0,77;-0,14;62;0;nan;13,3;17,7;21,4;25,4;17,5;15,5;13,5;12,0;-16,4;22,4;1460
2023-05-06 17:00:00;16,1;101253;84;0,0095;0,17;1,5;180;2,9;0,01;-1,21;16;0;nan;13,3;17,6;21,4;25,4;17,4;15,7;13,7;12,0;-16,3;22,4;1460
2023-05-06 18:00:00;15,1;101273;90;0,0095;0,3;1,0;91;1,9;0,96;-0,02;6;0;nan;13,3;17,6;21,4;25,4;17,1;15,8;13,8;12,0;-16,3;22,4;1460
2023-05-06 19:00:00;14,5;101293;94;0,0095;0,05;0,9;51;2,2;0,55;0,45;0;0;nan;13,4;17,6;21,4;25,4;16,8;15,7;14,0;12,0;-16,3;22,5;1458
2023-05-06 20:00:00;14,2;101338;94;0,0094;0,07;0,5;48;1,1;0,35;0,32;0;0;nan;13,4;17,6;21,4;25,4;16,5;15,7;14,1;12,1;-16,3;22,5;1458
2023-05-06 21:00:00;13,9;101333;95;0,0093;0,05;0,4;355;0,8;-0,03;0,37;0;0;nan;13,4;17,6;21,4;25,4;16,2;15,6;14,1;12,1;-16,3;22,5;1459
2023-05-06 22:00:00;13,7;101320;96;0,0093;0,0;0,7;75;1,6;0,59;0,16;0;0;nan;13,4;17,6;21,4;25,4;16,0;15,5;14,2;12,1;-16,3;22,4;1459
2023-05-06 23:00:00;13,4;101310;95;0,009;0,02;0,4;46;1,0;0,24;0,24;0;0;nan;13,4;17,6;21,3;25,4;15,7;15,4;14,2;12,2;-16,3;22,5;1459
2023-05-07 00:00:00;13,2;101317;96;0,009;0,0;0,5;50;0,9;0,2;0,16;0;0;nan;13,4;17,5;21,3;25,4;15,5;15,2;14,2;12,2;-16,3;22,2;1464
2023-05-07 01:00:00;13,1;101293;96;0,0089;0,02;1,0;95;2,1;0,9;-0,08;0;0;nan;13,4;17,5;21,3;25,4;15,3;15,1;14,2;12,3;-16,4;22,2;1464
2023-05-07 02:00:00;13,1;101290;97;0,009;0,0;1,0;88;2,1;0,94;0,04;0;0;nan;13,4;17,5;21,3;25,4;15,1;15,0;14,1;12,3;-16,4;22,1;1466
2023-05-07 03:00:00;13,0;101288;97;0,0089;0,02;1,0;85;2,1;1,04;0,1;0;0;nan;13,4;17,5;21,3;25,4;15,0;14,8;14,1;12,3;-16,4;22,3;1463
2023-05-07 04:00:00;12,8;101280;97;0,0088;0,0;1,2;84;2,4;1,16;0,12;20;0;nan;13,4;17,5;21,3;25,4;14,8;14,7;14,1;12,3;-16,4;22,4;1460
2023-05-07 05:00:00;12,9;101320;99;0,0091;0,0;1,3;67;2,7;1,18;0,51;72;0;nan;13,4;17,5;21,3;25,4;14,7;14,6;14,0;12,4;-16,4;22,5;1459
2023-05-07 06:00:00;13,7;101335;100;0,0097;0,0;1,8;74;4,0;1,68;0,49;179;0;nan;13,4;17,5;21,3;25,4;14,7;14,5;14,0;12,4;-16,4;22,1;1465
2023-05-07 07:00:00;14,6;101350;98;0,0101;0,0;2,3;67;4,6;2,09;0,87;287;0;nan;13,4;17,5;21,3;25,4;14,8;14,4;13,9;12,4;-16,4;22,0;1467
2023-05-07 08:00:00;15,9;101363;96;0,0107;0,0;2,4;64;4,5;2,11;1,03;451;0;nan;13,4;17,5;21,3;25,4;15,0;14,4;13,9;12,4;-16,5;21,9;1470
2023-05-07 09:00:00;17,2;101365;88;0,0106;0,0;2,1;59;4,2;1,75;1,03;395;0;nan;13,4;17,5;21,3;25,4;15,5;14,5;13,9;12,4;-16,5;21,8;1471
2023-05-07 10:00:00;18,9;101357;80;0,0107;0,0;2,5;70;4,9;2,35;0,83;623;0;nan;13,3;17,4;21,3;25,4;16,0;14,7;13,8;12,5;-16,6;21,8;1471
2023-05-07 11:00:00;19,7;101350;76;0,0107;0,0;2,7;58;5,5;2,26;1,4;644;0;nan;13,1;17,4;21,2;25,4;16,7;15,0;13,9;12,5;-16,8;21,9;1469
2023-05-07 12:00:00;20,7;101360;71;0,0106;0,0;2,6;58;5,2;2,22;1,37;633;0;nan;13,0;17,3;21,2;25,4;17,5;15,3;13,9;12,5;-16,9;21,9;1470
2023-05-07 13:00:00;20,1;101380;70;0,0102;0,0;2,5;65;5,3;2,22;1,06;308;0;nan;12,9;17,3;21,2;25,4;18,2;15,7;14,0;12,5;-16,9;21,7;1472
2023-05-07 14:00:00;19,6;101393;69;0,0097;0,0;1,9;74;4,1;1,86;0,52;81;0;nan;12,8;17,3;21,2;25,4;18,3;16,1;14,2;12,5;-16,9;21,4;1477
2023-05-07 15:00:00;19,1;101427;74;0,0101;0,0;2,1;85;4,0;2,06;0,19;127;0;nan;12,8;17,2;21,2;25,4;18,2;16,3;14,3;12,5;-16,9;21,5;1476
2023-05-07 16:00:00;18,6;101440;78;0,0104;0,0;1,6;61;3,6;1,4;0,79;66;0;nan;12,7;17,2;21,2;25,4;18,1;16,5;14,5;12,5;-16,9;21,5;1476
2023-05-07 17:00:00;18,2;101467;81;0,0104;0,0;0,9;37;2,0;0,53;0,7;28;0;nan;12,7;17,2;21,2;25,4;17,9;16,5;14,6;12,5;-16,9;21,6;1475
2023-05-07 18:00:00;17,7;101530;82;0,0103;0,0;0,7;14;1,7;0,15;0,61;14;0;nan;12,7;17,2;21,2;25,4;17,6;16,5;14,7;12,6;-16,9;21,7;1472
2023-05-07 19:00:00;16,9;101588;83;0,0098;0,0;1,6;58;3,3;1,33;0,82;1;0;nan;12,7;17,1;21,2;25,4;17,4;16,5;14,8;12,6;-16,9;21,7;1473
2023-05-07 20:00:00;16,1;101633;84;0,0094;0,0;1,5;61;3,0;1,27;0,71;0;0;nan;12,7;17,1;21,2;25,4;17,1;16,4;14,8;12,6;-16,9;21,8;1471
2023-05-07 21:00:00;15,4;101687;84;0,0091;0,0;1,6;83;3,6;1,53;0,2;0;0;nan;12,7;17,1;21,2;25,4;16,8;16,3;14,9;12,6;-16,9;21,7;1472
2023-05-07 22:00:00;14,6;101700;85;0,0087;0,0;1,4;75;3,1;1,31;0,35;0;0;nan;12,7;17,1;21,1;25,4;16,6;16,1;14,9;12,7;-16,9;21,6;1474
2023-05-07 23:00:00;13,9;101703;85;0,0083;0,0;1,1;85;2,3;1,1;0,1;0;0;nan;12,7;17,1;21,1;25,4;16,3;16,0;14,9;12,7;-16,9;21,7;1472
2023-05-08 00:00:00;13,4;101710;86;0,0081;0,0;1,3;85;2,6;1,3;0,1;0;0;nan;12,7;17,1;21,1;25,4;16,0;15,9;14,9;12,8;-17,0;21,6;1474
2023-05-08 01:00:00;12,6;101698;88;0,0079;0,0;1,0;79;2,4;1,02;0,2;0;0;nan;12,7;17,1;21,1;25,4;15,8;15,7;14,8;12,8;-17,0;21,7;1473
2023-05-08 02:00:00;11,9;101713;89;0,0076;0,0;1,2;93;2,6;1,24;-0,06;0;0;nan;12,7;17,1;21,1;25,4;15,5;15,6;14,8;12,8;-17,0;21,9;1470
2023-05-08 03:00:00;11,5;101727;90;0,0075;0,0;1,1;82;2,2;1,03;0,14;0;0;nan;12,7;17,0;21,1;25,4;15,3;15,4;14,8;12,8;-17,0;21,7;1472
2023-05-08 04:00:00;11,0;101717;91;0,0073;0,0;0,6;63;1,3;0,52;0,27;19;0;nan;12,7;17,0;21,1;25,4;15,0;15,3;14,7;12,9;-17,0;21,8;1471
2023-05-08 05:00:00;11,2;101744;92;0,0075;0,0;1,0;68;2,0;0,87;0,36;55;0;nan;12,7;17,0;21,1;25,4;14,8;15,1;14,6;12,9;-17,0;21,7;1473